Year,Month,Day,Hour,Minute,Value (Times are PST for temperature in C)
2011,03,28,00,00,6.80
2011,03,28,00,01,6.80
2011,03,28,00,02,6.80
2011,03,28,00,03,6.80
2011,03,28,00,04,6.80
2011,03,28,00,05,6.80
2011,03,28,00,06,6.80
2011,03,28,00,07,6.80
2011,03,28,00,08,6.80
2011,03,28,00,09,6.80
2011,03,28,00,10,6.90
2011,03,28,00,11,6.90
2011,03,28,00,12,6.80
2011,03,28,00,13,6.80
2011,03,28,00,14,6.80
2011,03,28,00,15,6.80
2011,03,28,00,16,6.80
2011,03,28,00,17,6.80
2011,03,28,00,18,6.80
2011,03,28,00,19,6.80
2011,03,28,00,20,6.80
2011,03,28,00,21,6.80
2011,03,28,00,22,6.80
2011,03,28,00,23,6.80
2011,03,28,00,24,6.90
2011,03,28,00,25,6.90
2011,03,28,00,26,6.90
2011,03,28,00,27,6.90
2011,03,28,00,28,6.90
2011,03,28,00,29,6.80
2011,03,28,00,30,6.80
2011,03,28,00,31,6.80
2011,03,28,00,32,6.80
2011,03,28,00,33,6.80
2011,03,28,00,34,6.80
2011,03,28,00,35,6.80
2011,03,28,00,36,6.80
2011,03,28,00,37,6.80
2011,03,28,00,38,6.80
2011,03,28,00,39,6.80
2011,03,28,00,40,6.70
2011,03,28,00,41,6.70
2011,03,28,00,42,6.70
2011,03,28,00,43,6.70
2011,03,28,00,44,6.70
2011,03,28,00,45,6.70
2011,03,28,00,46,6.70
2011,03,28,00,47,6.70
2011,03,28,00,48,6.60
2011,03,28,00,49,6.60
2011,03,28,00,50,6.60
2011,03,28,00,51,6.60
2011,03,28,00,52,6.60
2011,03,28,00,53,6.60
2011,03,28,00,54,6.60
2011,03,28,00,55,6.60
2011,03,28,00,56,6.60
2011,03,28,00,57,6.60
2011,03,28,00,58,6.60
2011,03,28,00,59,6.60
2011,03,28,01,00,6.60
2011,03,28,01,01,6.60
2011,03,28,01,02,6.60
2011,03,28,01,03,6.60
2011,03,28,01,04,6.60
2011,03,28,01,05,6.60
2011,03,28,01,06,6.60
2011,03,28,01,07,6.60
2011,03,28,01,08,6.60
2011,03,28,01,09,6.60
2011,03,28,01,10,6.60
2011,03,28,01,11,6.60
2011,03,28,01,12,6.60
2011,03,28,01,13,6.60
2011,03,28,01,14,6.60
2011,03,28,01,15,6.60
2011,03,28,01,16,6.60
2011,03,28,01,17,6.60
2011,03,28,01,18,6.60
2011,03,28,01,19,6.60
2011,03,28,01,20,6.70
2011,03,28,01,21,6.70
2011,03,28,01,22,6.70
2011,03,28,01,23,6.70
2011,03,28,01,24,6.70
2011,03,28,01,25,6.70
2011,03,28,01,26,6.70
2011,03,28,01,27,6.70
2011,03,28,01,28,6.70
2011,03,28,01,29,6.70
2011,03,28,01,30,6.70
2011,03,28,01,31,6.70
2011,03,28,01,32,6.70
2011,03,28,01,33,6.70
2011,03,28,01,34,6.70
2011,03,28,01,35,6.70
2011,03,28,01,36,6.70
2011,03,28,01,37,6.70
2011,03,28,01,38,6.70
2011,03,28,01,39,6.70
2011,03,28,01,40,6.70
2011,03,28,01,41,6.70
2011,03,28,01,42,6.70
2011,03,28,01,43,6.70
2011,03,28,01,44,6.70
2011,03,28,01,45,6.70
2011,03,28,01,46,6.70
2011,03,28,01,47,6.70
2011,03,28,01,48,6.70
2011,03,28,01,49,6.70
2011,03,28,01,50,6.70
2011,03,28,01,51,6.70
2011,03,28,01,52,6.70
2011,03,28,01,53,6.70
2011,03,28,01,54,6.70
2011,03,28,01,55,6.70
2011,03,28,01,56,6.70
2011,03,28,01,57,6.70
2011,03,28,01,58,6.70
2011,03,28,01,59,6.70
2011,03,28,02,00,6.70
2011,03,28,02,01,6.70
2011,03,28,02,02,6.70
2011,03,28,02,03,6.70
2011,03,28,02,04,6.70
2011,03,28,02,05,6.70
2011,03,28,02,06,6.70
2011,03,28,02,07,6.70
2011,03,28,02,08,6.60
2011,03,28,02,09,6.60
2011,03,28,02,10,6.60
2011,03,28,02,11,6.60
2011,03,28,02,12,6.60
2011,03,28,02,13,6.60
2011,03,28,02,14,6.60
2011,03,28,02,15,6.60
2011,03,28,02,16,6.60
2011,03,28,02,17,6.60
2011,03,28,02,18,6.60
2011,03,28,02,19,6.60
2011,03,28,02,20,6.60
2011,03,28,02,21,6.60
2011,03,28,02,22,6.60
2011,03,28,02,23,6.60
2011,03,28,02,24,6.60
2011,03,28,02,25,6.60
2011,03,28,02,26,6.60
2011,03,28,02,27,6.60
2011,03,28,02,28,6.60
2011,03,28,02,29,6.50
2011,03,28,02,30,6.40
2011,03,28,02,31,6.40
2011,03,28,02,32,6.40
2011,03,28,02,33,6.40
2011,03,28,02,34,6.40
2011,03,28,02,35,6.40
2011,03,28,02,36,6.40
2011,03,28,02,37,6.40
2011,03,28,02,38,6.40
2011,03,28,02,39,6.40
2011,03,28,02,40,6.40
2011,03,28,02,41,6.40
2011,03,28,02,42,6.40
2011,03,28,02,43,6.40
2011,03,28,02,44,6.40
2011,03,28,02,45,6.40
2011,03,28,02,46,6.40
2011,03,28,02,47,6.40
2011,03,28,02,48,6.40
2011,03,28,02,49,6.40
2011,03,28,02,50,6.40
2011,03,28,02,51,6.40
2011,03,28,02,52,6.40
2011,03,28,02,53,6.40
2011,03,28,02,54,6.40
2011,03,28,02,55,6.40
2011,03,28,02,56,6.40
2011,03,28,02,57,6.40
2011,03,28,02,58,6.40
2011,03,28,02,59,6.40
2011,03,28,03,00,6.40
2011,03,28,03,01,6.40
2011,03,28,03,02,6.30
2011,03,28,03,03,6.30
2011,03,28,03,04,6.20
2011,03,28,03,05,6.20
2011,03,28,03,06,6.20
2011,03,28,03,07,6.20
2011,03,28,03,08,6.10
2011,03,28,03,09,6.00
2011,03,28,03,10,6.00
2011,03,28,03,11,5.90
2011,03,28,03,12,5.90
2011,03,28,03,13,5.90
2011,03,28,03,14,5.80
2011,03,28,03,15,5.80
2011,03,28,03,16,5.70
2011,03,28,03,17,5.70
2011,03,28,03,18,5.70
2011,03,28,03,19,5.70
2011,03,28,03,20,5.70
2011,03,28,03,21,5.70
2011,03,28,03,22,5.70
2011,03,28,03,23,5.70
2011,03,28,03,24,5.70
2011,03,28,03,25,5.70
2011,03,28,03,26,5.60
2011,03,28,03,27,5.60
2011,03,28,03,28,5.60
2011,03,28,03,29,5.60
2011,03,28,03,30,5.60
2011,03,28,03,31,5.50
2011,03,28,03,32,5.50
2011,03,28,03,33,5.50
2011,03,28,03,34,5.50
2011,03,28,03,35,5.40
2011,03,28,03,36,5.40
2011,03,28,03,37,5.30
2011,03,28,03,38,5.20
2011,03,28,03,39,5.10
2011,03,28,03,40,5.00
2011,03,28,03,41,4.80
2011,03,28,03,42,4.80
2011,03,28,03,43,4.70
2011,03,28,03,44,4.60
2011,03,28,03,45,4.50
2011,03,28,03,46,4.50
2011,03,28,03,47,4.50
2011,03,28,03,48,4.40
2011,03,28,03,49,4.40
2011,03,28,03,50,4.30
2011,03,28,03,51,4.30
2011,03,28,03,52,4.20
2011,03,28,03,53,4.20
2011,03,28,03,54,4.20
2011,03,28,03,55,4.10
2011,03,28,03,56,4.10
2011,03,28,03,57,4.00
2011,03,28,03,58,4.00
2011,03,28,03,59,4.00
2011,03,28,04,00,4.10
2011,03,28,04,01,4.10
2011,03,28,04,02,4.10
2011,03,28,04,03,4.20
2011,03,28,04,04,4.20
2011,03,28,04,05,4.20
2011,03,28,04,06,4.20
2011,03,28,04,07,4.20
2011,03,28,04,08,4.20
2011,03,28,04,09,4.20
2011,03,28,04,10,4.20
2011,03,28,04,11,4.20
2011,03,28,04,12,4.20
2011,03,28,04,13,4.10
2011,03,28,04,14,4.10
2011,03,28,04,15,4.10
2011,03,28,04,16,4.00
2011,03,28,04,17,4.00
2011,03,28,04,18,4.00
2011,03,28,04,19,4.00
2011,03,28,04,20,4.00
2011,03,28,04,21,3.90
2011,03,28,04,22,3.90
2011,03,28,04,23,3.90
2011,03,28,04,24,3.80
2011,03,28,04,25,3.80
2011,03,28,04,26,3.80
2011,03,28,04,27,3.80
2011,03,28,04,28,3.80
2011,03,28,04,29,3.70
2011,03,28,04,30,3.70
2011,03,28,04,31,3.60
2011,03,28,04,32,3.60
2011,03,28,04,33,3.50
2011,03,28,04,34,3.50
2011,03,28,04,35,3.50
2011,03,28,04,36,3.50
2011,03,28,04,37,3.40
2011,03,28,04,38,3.40
2011,03,28,04,39,3.40
2011,03,28,04,40,3.40
2011,03,28,04,41,3.40
2011,03,28,04,42,3.30
2011,03,28,04,43,3.30
2011,03,28,04,44,3.30
2011,03,28,04,45,3.30
2011,03,28,04,46,3.30
2011,03,28,04,47,3.20
2011,03,28,04,48,3.20
2011,03,28,04,49,3.20
2011,03,28,04,50,3.10
2011,03,28,04,51,3.10
2011,03,28,04,52,3.10
2011,03,28,04,53,3.10
2011,03,28,04,54,3.10
2011,03,28,04,55,3.00
2011,03,28,04,56,2.90
2011,03,28,04,57,2.90
2011,03,28,04,58,2.90
2011,03,28,04,59,2.90
2011,03,28,05,00,2.90
2011,03,28,05,01,2.90
2011,03,28,05,02,2.80
2011,03,28,05,03,2.80
2011,03,28,05,04,2.80
2011,03,28,05,05,2.80
2011,03,28,05,06,2.70
2011,03,28,05,07,2.70
2011,03,28,05,08,2.70
2011,03,28,05,09,2.70
2011,03,28,05,10,2.70
2011,03,28,05,11,2.70
2011,03,28,05,12,2.70
2011,03,28,05,13,2.60
2011,03,28,05,14,2.60
2011,03,28,05,15,2.60
2011,03,28,05,16,2.60
2011,03,28,05,17,2.60
2011,03,28,05,18,2.60
2011,03,28,05,19,2.50
2011,03,28,05,20,2.50
2011,03,28,05,21,2.50
2011,03,28,05,22,2.50
2011,03,28,05,23,2.40
2011,03,28,05,24,2.40
2011,03,28,05,25,2.40
2011,03,28,05,26,2.40
2011,03,28,05,27,2.30
2011,03,28,05,28,2.30
2011,03,28,05,29,2.30
2011,03,28,05,30,2.30
2011,03,28,05,31,2.20
2011,03,28,05,32,2.20
2011,03,28,05,33,2.20
2011,03,28,05,34,2.20
2011,03,28,05,35,2.20
2011,03,28,05,36,2.20
2011,03,28,05,37,2.20
2011,03,28,05,38,2.20
2011,03,28,05,39,2.20
2011,03,28,05,40,2.20
2011,03,28,05,41,2.10
2011,03,28,05,42,2.10
2011,03,28,05,43,2.10
2011,03,28,05,44,2.10
2011,03,28,05,45,2.00
2011,03,28,05,46,2.00
2011,03,28,05,47,2.00
2011,03,28,05,48,2.00
2011,03,28,05,49,1.90
2011,03,28,05,50,1.90
2011,03,28,05,51,1.90
2011,03,28,05,52,1.90
2011,03,28,05,53,1.90
2011,03,28,05,54,1.80
2011,03,28,05,55,1.80
2011,03,28,05,56,1.80
2011,03,28,05,57,1.80
2011,03,28,05,58,1.80
2011,03,28,05,59,1.80
2011,03,28,06,00,1.80
2011,03,28,06,01,1.80
2011,03,28,06,02,1.80
2011,03,28,06,03,1.80
2011,03,28,06,04,1.80
2011,03,28,06,05,1.80
2011,03,28,06,06,1.80
2011,03,28,06,07,1.70
2011,03,28,06,08,1.70
2011,03,28,06,09,1.70
2011,03,28,06,10,1.70
2011,03,28,06,11,1.70
2011,03,28,06,12,1.70
2011,03,28,06,13,1.70
2011,03,28,06,14,1.60
2011,03,28,06,15,1.60
2011,03,28,06,16,1.60
2011,03,28,06,17,1.60
2011,03,28,06,18,1.60
2011,03,28,06,19,1.60
2011,03,28,06,20,1.60
2011,03,28,06,21,1.50
2011,03,28,06,22,1.50
2011,03,28,06,23,1.50
2011,03,28,06,24,1.50
2011,03,28,06,25,1.50
2011,03,28,06,26,1.50
2011,03,28,06,27,1.50
2011,03,28,06,28,1.50
2011,03,28,06,29,1.50
2011,03,28,06,30,1.50
2011,03,28,06,31,1.50
2011,03,28,06,32,1.50
2011,03,28,06,33,1.40
2011,03,28,06,34,1.40
2011,03,28,06,35,1.40
2011,03,28,06,36,1.40
2011,03,28,06,37,1.40
2011,03,28,06,38,1.30
2011,03,28,06,39,1.30
2011,03,28,06,40,1.30
2011,03,28,06,41,1.30
2011,03,28,06,42,1.30
2011,03,28,06,43,1.30
2011,03,28,06,44,1.30
2011,03,28,06,45,1.30
2011,03,28,06,46,1.30
2011,03,28,06,47,1.30
2011,03,28,06,48,1.30
2011,03,28,06,49,1.30
2011,03,28,06,50,1.20
2011,03,28,06,51,1.20
2011,03,28,06,52,1.20
2011,03,28,06,53,1.20
2011,03,28,06,54,1.10
2011,03,28,06,55,1.10
2011,03,28,06,56,1.10
2011,03,28,06,57,1.10
2011,03,28,06,58,1.00
2011,03,28,06,59,1.00
2011,03,28,07,00,1.00
2011,03,28,07,01,1.00
2011,03,28,07,02,1.00
2011,03,28,07,03,0.90
2011,03,28,07,04,0.90
2011,03,28,07,05,0.90
2011,03,28,07,06,0.90
2011,03,28,07,07,0.90
2011,03,28,07,08,0.90
2011,03,28,07,09,0.90
2011,03,28,07,10,0.90
2011,03,28,07,11,0.90
2011,03,28,07,12,0.90
2011,03,28,07,13,0.90
2011,03,28,07,14,0.90
2011,03,28,07,15,0.90
2011,03,28,07,16,0.90
2011,03,28,07,17,0.90
2011,03,28,07,18,1.00
2011,03,28,07,19,1.00
2011,03,28,07,20,1.00
2011,03,28,07,21,1.00
2011,03,28,07,22,1.00
2011,03,28,07,23,1.00
2011,03,28,07,24,1.00
2011,03,28,07,25,1.00
2011,03,28,07,26,1.00
2011,03,28,07,27,1.00
2011,03,28,07,28,1.00
2011,03,28,07,29,1.00
2011,03,28,07,30,1.00
2011,03,28,07,31,1.00
2011,03,28,07,32,1.00
2011,03,28,07,33,1.00
2011,03,28,07,34,1.00
2011,03,28,07,35,1.00
2011,03,28,07,36,1.00
2011,03,28,07,37,1.00
2011,03,28,07,38,1.00
2011,03,28,07,39,1.00
2011,03,28,07,40,1.00
2011,03,28,07,41,1.00
2011,03,28,07,42,0.90
2011,03,28,07,43,0.90
2011,03,28,07,44,0.90
2011,03,28,07,45,0.90
2011,03,28,07,46,0.90
2011,03,28,07,47,0.90
2011,03,28,07,48,0.90
2011,03,28,07,49,0.90
2011,03,28,07,50,1.00
2011,03,28,07,51,1.00
2011,03,28,07,52,1.00
2011,03,28,07,53,1.00
2011,03,28,07,54,1.10
2011,03,28,07,55,1.10
2011,03,28,07,56,1.20
2011,03,28,07,57,1.20
2011,03,28,07,58,1.30
2011,03,28,07,59,1.30
2011,03,28,08,00,1.30
2011,03,28,08,01,1.40
2011,03,28,08,02,1.50
2011,03,28,08,03,1.50
2011,03,28,08,04,1.60
2011,03,28,08,05,1.60
2011,03,28,08,06,1.70
2011,03,28,08,07,1.70
2011,03,28,08,08,1.80
2011,03,28,08,09,1.80
2011,03,28,08,10,1.90
2011,03,28,08,11,2.00
2011,03,28,08,12,2.00
2011,03,28,08,13,2.10
2011,03,28,08,14,2.20
2011,03,28,08,15,2.20
2011,03,28,08,16,2.20
2011,03,28,08,17,2.30
2011,03,28,08,18,2.30
2011,03,28,08,19,2.40
2011,03,28,08,20,2.50
2011,03,28,08,21,2.50
2011,03,28,08,22,2.60
2011,03,28,08,23,2.70
2011,03,28,08,24,2.70
2011,03,28,08,25,2.80
2011,03,28,08,26,2.90
2011,03,28,08,27,3.00
2011,03,28,08,28,3.10
2011,03,28,08,29,3.10
2011,03,28,08,30,3.20
2011,03,28,08,31,3.20
2011,03,28,08,32,3.30
2011,03,28,08,33,3.30
2011,03,28,08,34,3.30
2011,03,28,08,35,3.40
2011,03,28,08,36,3.50
2011,03,28,08,37,3.50
2011,03,28,08,38,3.60
2011,03,28,08,39,3.60
2011,03,28,08,40,3.60
2011,03,28,08,41,3.70
2011,03,28,08,42,3.70
2011,03,28,08,43,3.80
2011,03,28,08,44,3.80
2011,03,28,08,45,3.90
2011,03,28,08,46,4.00
2011,03,28,08,47,4.00
2011,03,28,08,48,4.10
2011,03,28,08,49,4.10
2011,03,28,08,50,4.20
2011,03,28,08,51,4.20
2011,03,28,08,52,4.20
2011,03,28,08,53,4.30
2011,03,28,08,54,4.30
2011,03,28,08,55,4.40
2011,03,28,08,56,4.50
2011,03,28,08,57,4.50
2011,03,28,08,58,4.60
2011,03,28,08,59,4.60
2011,03,28,09,00,4.60
2011,03,28,09,01,4.70
2011,03,28,09,02,4.70
2011,03,28,09,03,4.80
2011,03,28,09,04,4.90
2011,03,28,09,05,4.90
2011,03,28,09,06,5.10
2011,03,28,09,07,5.10
2011,03,28,09,08,5.10
2011,03,28,09,09,5.20
2011,03,28,09,10,5.20
2011,03,28,09,11,5.30
2011,03,28,09,12,5.30
2011,03,28,09,13,5.40
2011,03,28,09,14,5.50
2011,03,28,09,15,5.50
2011,03,28,09,16,5.60
2011,03,28,09,17,5.60
2011,03,28,09,18,5.70
2011,03,28,09,19,5.70
2011,03,28,09,20,5.70
2011,03,28,09,21,5.70
2011,03,28,09,22,5.80
2011,03,28,09,23,5.80
2011,03,28,09,24,5.90
2011,03,28,09,25,5.90
2011,03,28,09,26,5.90
2011,03,28,09,27,6.00
2011,03,28,09,28,6.00
2011,03,28,09,29,6.00
2011,03,28,09,30,6.00
2011,03,28,09,31,6.10
2011,03,28,09,32,6.10
2011,03,28,09,33,6.10
2011,03,28,09,34,6.10
2011,03,28,09,35,6.20
2011,03,28,09,36,6.20
2011,03,28,09,37,6.20
2011,03,28,09,38,6.20
2011,03,28,09,39,6.20
2011,03,28,09,40,6.20
2011,03,28,09,41,6.20
2011,03,28,09,42,6.20
2011,03,28,09,43,6.20
2011,03,28,09,44,6.30
2011,03,28,09,45,6.30
2011,03,28,09,46,6.30
2011,03,28,09,47,6.40
2011,03,28,09,48,6.40
2011,03,28,09,49,6.40
2011,03,28,09,50,6.40
2011,03,28,09,51,6.50
2011,03,28,09,52,6.60
2011,03,28,09,53,6.60
2011,03,28,09,54,6.60
2011,03,28,09,55,6.60
2011,03,28,09,56,6.60
2011,03,28,09,57,6.60
2011,03,28,09,58,6.60
2011,03,28,09,59,6.60
2011,03,28,10,00,6.60
2011,03,28,10,01,6.60
2011,03,28,10,02,6.60
2011,03,28,10,03,6.70
2011,03,28,10,04,6.70
2011,03,28,10,05,6.70
2011,03,28,10,06,6.70
2011,03,28,10,07,6.70
2011,03,28,10,08,6.70
2011,03,28,10,09,6.70
2011,03,28,10,10,6.70
2011,03,28,10,11,6.60
2011,03,28,10,12,6.60
2011,03,28,10,13,6.60
2011,03,28,10,14,6.60
2011,03,28,10,15,6.60
2011,03,28,10,16,6.60
2011,03,28,10,17,6.60
2011,03,28,10,18,6.60
2011,03,28,10,19,6.60
2011,03,28,10,20,6.60
2011,03,28,10,21,6.60
2011,03,28,10,22,6.60
2011,03,28,10,23,6.60
2011,03,28,10,24,6.60
2011,03,28,10,25,6.60
2011,03,28,10,26,6.60
2011,03,28,10,27,6.60
2011,03,28,10,28,6.60
2011,03,28,10,29,6.60
2011,03,28,10,30,6.60
2011,03,28,10,31,6.60
2011,03,28,10,32,6.60
2011,03,28,10,33,6.70
2011,03,28,10,34,6.70
2011,03,28,10,35,6.70
2011,03,28,10,36,6.70
2011,03,28,10,37,6.80
2011,03,28,10,38,6.80
2011,03,28,10,39,6.80
2011,03,28,10,40,6.80
2011,03,28,10,41,6.80
2011,03,28,10,42,6.80
2011,03,28,10,43,6.80
2011,03,28,10,44,6.90
2011,03,28,10,45,7.00
2011,03,28,10,46,7.00
2011,03,28,10,47,7.10
2011,03,28,10,48,7.20
2011,03,28,10,49,7.30
2011,03,28,10,50,7.30
2011,03,28,10,51,7.40
2011,03,28,10,52,7.50
2011,03,28,10,53,7.60
2011,03,28,10,54,7.60
2011,03,28,10,55,7.70
2011,03,28,10,56,7.80
2011,03,28,10,57,7.90
2011,03,28,10,58,7.90
2011,03,28,10,59,8.10
2011,03,28,11,00,8.20
2011,03,28,11,01,8.30
2011,03,28,11,02,8.40
2011,03,28,11,03,8.50
2011,03,28,11,04,8.70
2011,03,28,11,05,8.70
2011,03,28,11,06,8.70
2011,03,28,11,07,8.80
2011,03,28,11,08,9.00
2011,03,28,11,09,9.00
2011,03,28,11,10,9.10
2011,03,28,11,11,9.10
2011,03,28,11,12,9.20
2011,03,28,11,13,9.10
2011,03,28,11,14,9.10
2011,03,28,11,15,9.00
2011,03,28,11,16,9.10
2011,03,28,11,17,9.10
2011,03,28,11,18,9.00
2011,03,28,11,19,9.00
2011,03,28,11,20,8.90
2011,03,28,11,21,8.90
2011,03,28,11,22,8.90
2011,03,28,11,23,8.90
2011,03,28,11,24,9.00
2011,03,28,11,25,9.10
2011,03,28,11,26,9.10
2011,03,28,11,27,9.20
2011,03,28,11,28,9.20
2011,03,28,11,29,9.20
2011,03,28,11,30,9.20
2011,03,28,11,31,9.20
2011,03,28,11,32,9.30
2011,03,28,11,33,9.30
2011,03,28,11,34,9.30
2011,03,28,11,35,9.30
2011,03,28,11,36,9.30
2011,03,28,11,37,9.40
2011,03,28,11,38,9.50
2011,03,28,11,39,9.50
2011,03,28,11,40,9.60
2011,03,28,11,41,9.70
2011,03,28,11,42,9.70
2011,03,28,11,43,9.60
2011,03,28,11,44,9.50
2011,03,28,11,45,9.30
2011,03,28,11,46,9.30
2011,03,28,11,47,9.50
2011,03,28,11,48,9.60
2011,03,28,11,49,9.70
2011,03,28,11,50,9.80
2011,03,28,11,51,9.90
2011,03,28,11,52,10.00
2011,03,28,11,53,10.10
2011,03,28,11,54,10.10
2011,03,28,11,55,10.10
2011,03,28,11,56,10.00
2011,03,28,11,57,9.90
2011,03,28,11,58,9.90
2011,03,28,11,59,9.90
2011,03,28,12,00,10.00
2011,03,28,12,01,10.10
2011,03,28,12,02,10.00
2011,03,28,12,03,9.90
2011,03,28,12,04,9.80
2011,03,28,12,05,9.80
2011,03,28,12,06,9.90
2011,03,28,12,07,10.00
2011,03,28,12,08,10.10
2011,03,28,12,09,10.10
2011,03,28,12,10,10.20
2011,03,28,12,11,10.30
2011,03,28,12,12,10.30
2011,03,28,12,13,10.40
2011,03,28,12,14,10.40
2011,03,28,12,15,10.40
2011,03,28,12,16,10.40
2011,03,28,12,17,10.60
2011,03,28,12,18,10.60
2011,03,28,12,19,10.60
2011,03,28,12,20,10.60
2011,03,28,12,21,10.60
2011,03,28,12,22,10.60
2011,03,28,12,23,10.70
2011,03,28,12,24,10.80
2011,03,28,12,25,10.80
2011,03,28,12,26,10.90
2011,03,28,12,27,10.90
2011,03,28,12,28,10.90
2011,03,28,12,29,10.90
2011,03,28,12,30,10.90
2011,03,28,12,31,10.80
2011,03,28,12,32,10.70
2011,03,28,12,33,10.70
2011,03,28,12,34,10.70
2011,03,28,12,35,10.60
2011,03,28,12,36,10.50
2011,03,28,12,37,10.40
2011,03,28,12,38,10.30
2011,03,28,12,39,10.30
2011,03,28,12,40,10.30
2011,03,28,12,41,10.30
2011,03,28,12,42,10.30
2011,03,28,12,43,10.20
2011,03,28,12,44,10.10
2011,03,28,12,45,10.10
2011,03,28,12,46,10.10
2011,03,28,12,47,10.10
2011,03,28,12,48,10.20
2011,03,28,12,49,10.30
2011,03,28,12,50,10.30
2011,03,28,12,51,10.30
2011,03,28,12,52,10.30
2011,03,28,12,53,10.30
2011,03,28,12,54,10.40
2011,03,28,12,55,10.40
2011,03,28,12,56,10.40
2011,03,28,12,57,10.50
2011,03,28,12,58,10.60
2011,03,28,12,59,10.60
2011,03,28,13,00,10.60
2011,03,28,13,01,10.60
2011,03,28,13,02,10.60
2011,03,28,13,03,10.50
2011,03,28,13,04,10.40
2011,03,28,13,05,10.20
2011,03,28,13,06,10.00
2011,03,28,13,07,9.90
2011,03,28,13,08,9.90
2011,03,28,13,09,9.90
2011,03,28,13,10,9.90
2011,03,28,13,11,9.90
2011,03,28,13,12,10.10
2011,03,28,13,13,10.10
2011,03,28,13,14,10.30
2011,03,28,13,15,10.40
2011,03,28,13,16,10.40
2011,03,28,13,17,10.40
2011,03,28,13,18,10.40
2011,03,28,13,19,10.40
2011,03,28,13,20,10.40
2011,03,28,13,21,10.20
2011,03,28,13,22,10.10
2011,03,28,13,23,9.90
2011,03,28,13,24,9.60
2011,03,28,13,25,9.40
2011,03,28,13,26,9.30
2011,03,28,13,27,9.20
2011,03,28,13,28,9.10
2011,03,28,13,29,9.10
2011,03,28,13,30,9.10
2011,03,28,13,31,9.20
2011,03,28,13,32,9.20
2011,03,28,13,33,9.20
2011,03,28,13,34,9.20
2011,03,28,13,35,9.20
2011,03,28,13,36,9.30
2011,03,28,13,37,9.30
2011,03,28,13,38,9.30
2011,03,28,13,39,9.40
2011,03,28,13,40,9.30
2011,03,28,13,41,9.40
2011,03,28,13,42,9.40
2011,03,28,13,43,9.50
2011,03,28,13,44,9.50
2011,03,28,13,45,9.50
2011,03,28,13,46,9.60
2011,03,28,13,47,9.70
2011,03,28,13,48,9.70
2011,03,28,13,49,9.70
2011,03,28,13,50,9.70
2011,03,28,13,51,9.70
2011,03,28,13,52,9.70
2011,03,28,13,53,9.70
2011,03,28,13,54,9.70
2011,03,28,13,55,9.70
2011,03,28,13,56,9.70
2011,03,28,13,57,9.60
2011,03,28,13,58,9.60
2011,03,28,13,59,9.70
2011,03,28,14,00,9.70
2011,03,28,14,01,9.80
2011,03,28,14,02,9.80
2011,03,28,14,03,9.80
2011,03,28,14,04,9.70
2011,03,28,14,05,9.70
2011,03,28,14,06,9.70
2011,03,28,14,07,9.70
2011,03,28,14,08,9.80
2011,03,28,14,09,9.90
2011,03,28,14,10,9.90
2011,03,28,14,11,9.90
2011,03,28,14,12,9.80
2011,03,28,14,13,9.80
2011,03,28,14,14,9.70
2011,03,28,14,15,9.70
2011,03,28,14,16,9.70
2011,03,28,14,17,9.70
2011,03,28,14,18,9.70
2011,03,28,14,19,9.80
2011,03,28,14,20,9.80
2011,03,28,14,21,9.80
2011,03,28,14,22,9.80
2011,03,28,14,23,9.80
2011,03,28,14,24,9.70
2011,03,28,14,25,9.70
2011,03,28,14,26,9.60
2011,03,28,14,27,9.60
2011,03,28,14,28,9.50
2011,03,28,14,29,9.50
2011,03,28,14,30,9.50
2011,03,28,14,31,9.40
2011,03,28,14,32,9.40
2011,03,28,14,33,9.30
2011,03,28,14,34,9.30
2011,03,28,14,35,9.20
2011,03,28,14,36,9.20
2011,03,28,14,37,9.20
2011,03,28,14,38,9.20
2011,03,28,14,39,9.20
2011,03,28,14,40,9.30
2011,03,28,14,41,9.40
2011,03,28,14,42,9.40
2011,03,28,14,43,9.50
2011,03,28,14,44,9.60
2011,03,28,14,45,9.50
2011,03,28,14,46,9.30
2011,03,28,14,47,9.20
2011,03,28,14,48,9.20
2011,03,28,14,49,9.20
2011,03,28,14,50,9.00
2011,03,28,14,51,9.00
2011,03,28,14,52,8.90
2011,03,28,14,53,8.90
2011,03,28,14,54,8.90
2011,03,28,14,55,8.80
2011,03,28,14,56,8.80
2011,03,28,14,57,8.80
2011,03,28,14,58,8.90
2011,03,28,14,59,8.90
2011,03,28,15,00,9.00
2011,03,28,15,01,9.00
2011,03,28,15,02,9.10
2011,03,28,15,03,9.20
2011,03,28,15,04,9.20
2011,03,28,15,05,9.20
2011,03,28,15,06,9.20
2011,03,28,15,07,9.20
2011,03,28,15,08,9.10
2011,03,28,15,09,9.00
2011,03,28,15,10,9.00
2011,03,28,15,11,9.10
2011,03,28,15,12,9.20
2011,03,28,15,13,9.20
2011,03,28,15,14,9.20
2011,03,28,15,15,9.20
2011,03,28,15,16,9.20
2011,03,28,15,17,9.10
2011,03,28,15,18,9.00
2011,03,28,15,19,9.00
2011,03,28,15,20,9.00
2011,03,28,15,21,9.00
2011,03,28,15,22,9.10
2011,03,28,15,23,9.00
2011,03,28,15,24,9.00
2011,03,28,15,25,9.00
2011,03,28,15,26,9.00
2011,03,28,15,27,9.00
2011,03,28,15,28,9.00
2011,03,28,15,29,9.10
2011,03,28,15,30,9.10
2011,03,28,15,31,9.20
2011,03,28,15,32,9.20
2011,03,28,15,33,9.20
2011,03,28,15,34,9.20
2011,03,28,15,35,9.30
2011,03,28,15,36,9.30
2011,03,28,15,37,9.40
2011,03,28,15,38,9.40
2011,03,28,15,39,9.40
2011,03,28,15,40,9.40
2011,03,28,15,41,9.50
2011,03,28,15,42,9.50
2011,03,28,15,43,9.60
2011,03,28,15,44,9.60
2011,03,28,15,45,9.70
2011,03,28,15,46,9.70
2011,03,28,15,47,9.70
2011,03,28,15,48,9.70
2011,03,28,15,49,9.80
2011,03,28,15,50,9.80
2011,03,28,15,51,9.90
2011,03,28,15,52,9.90
2011,03,28,15,53,10.00
2011,03,28,15,54,10.10
2011,03,28,15,55,10.10
2011,03,28,15,56,10.20
2011,03,28,15,57,10.30
2011,03,28,15,58,10.40
2011,03,28,15,59,10.40
2011,03,28,16,00,10.50
2011,03,28,16,01,10.60
2011,03,28,16,02,10.60
2011,03,28,16,03,10.60
2011,03,28,16,04,10.70
2011,03,28,16,05,10.80
2011,03,28,16,06,10.90
2011,03,28,16,07,10.90
2011,03,28,16,08,11.10
2011,03,28,16,09,11.10
2011,03,28,16,10,11.20
2011,03,28,16,11,11.20
2011,03,28,16,12,11.20
2011,03,28,16,13,11.20
2011,03,28,16,14,11.20
2011,03,28,16,15,11.20
2011,03,28,16,16,11.20
2011,03,28,16,17,11.20
2011,03,28,16,18,11.10
2011,03,28,16,19,10.90
2011,03,28,16,20,10.90
2011,03,28,16,21,10.90
2011,03,28,16,22,10.90
2011,03,28,16,23,10.90
2011,03,28,16,24,10.90
2011,03,28,16,25,11.00
2011,03,28,16,26,11.10
2011,03,28,16,27,11.10
2011,03,28,16,28,11.10
2011,03,28,16,29,11.20
2011,03,28,16,30,11.20
2011,03,28,16,31,11.20
2011,03,28,16,32,11.20
2011,03,28,16,33,11.20
2011,03,28,16,34,11.20
2011,03,28,16,35,11.20
2011,03,28,16,36,11.20
2011,03,28,16,37,11.20
2011,03,28,16,38,11.20
2011,03,28,16,39,11.20
2011,03,28,16,40,11.10
2011,03,28,16,41,11.10
2011,03,28,16,42,11.10
2011,03,28,16,43,11.10
2011,03,28,16,44,11.10
2011,03,28,16,45,11.10
2011,03,28,16,46,11.10
2011,03,28,16,47,11.10
2011,03,28,16,48,11.10
2011,03,28,16,49,11.10
2011,03,28,16,50,11.00
2011,03,28,16,51,10.90
2011,03,28,16,52,10.90
2011,03,28,16,53,10.90
2011,03,28,16,54,10.90
2011,03,28,16,55,10.80
2011,03,28,16,56,10.80
2011,03,28,16,57,10.70
2011,03,28,16,58,10.60
2011,03,28,16,59,10.60
2011,03,28,17,00,10.50
2011,03,28,17,01,10.40
2011,03,28,17,02,10.40
2011,03,28,17,03,10.40
2011,03,28,17,04,10.40
2011,03,28,17,05,10.50
2011,03,28,17,06,10.60
2011,03,28,17,07,10.60
2011,03,28,17,08,10.60
2011,03,28,17,09,10.60
2011,03,28,17,10,10.60
2011,03,28,17,11,10.60
2011,03,28,17,12,10.60
2011,03,28,17,13,10.60
2011,03,28,17,14,10.60
2011,03,28,17,15,10.60
2011,03,28,17,16,10.60
2011,03,28,17,17,10.60
2011,03,28,17,18,10.40
2011,03,28,17,19,10.40
2011,03,28,17,20,10.40
2011,03,28,17,21,10.40
2011,03,28,17,22,10.40
2011,03,28,17,23,10.40
2011,03,28,17,24,10.40
2011,03,28,17,25,10.40
2011,03,28,17,26,10.40
2011,03,28,17,27,10.40
2011,03,28,17,28,10.40
2011,03,28,17,29,10.40
2011,03,28,17,30,10.40
2011,03,28,17,31,10.30
2011,03,28,17,32,10.30
2011,03,28,17,33,10.30
2011,03,28,17,34,10.30
2011,03,28,17,35,10.30
2011,03,28,17,36,10.30
2011,03,28,17,37,10.30
2011,03,28,17,38,10.30
2011,03,28,17,39,10.30
2011,03,28,17,40,10.30
2011,03,28,17,41,10.20
2011,03,28,17,42,10.20
2011,03,28,17,43,10.10
2011,03,28,17,44,10.10
2011,03,28,17,45,10.10
2011,03,28,17,46,10.10
2011,03,28,17,47,10.10
2011,03,28,17,48,10.10
2011,03,28,17,49,10.10
2011,03,28,17,50,10.10
2011,03,28,17,51,10.10
2011,03,28,17,52,10.10
2011,03,28,17,53,10.10
2011,03,28,17,54,10.10
2011,03,28,17,55,10.10
2011,03,28,17,56,10.10
2011,03,28,17,57,10.10